Terminal Aerodrome Forecast
Issued by NWS

Home | Current Version | Previous Version | Text Only | Print | Product List | Glossary On
Versions: 1 2 3 4 5 6 7 8 9 10 11 12 13 14 15 16 17 18 19 20 21 22 23 24 25 26 27 28 29 30 31 32 33 34 35 36 37 38 39 40 41 42 43 44 45 46 47 48 49 50
000
FTUS46 KPQR 111914 AAA
TAFONP
TAF AMD
KONP 111914Z 1119/1218 31004KT 3SM BR OVC004
     FM112000 33006KT P6SM BKN007 BKN150
     FM112200 33007KT P6SM SCT009 BKN120 BKN250
     FM120200 33007KT 3SM BR BKN008 OVC080
     FM120500 23008KT 1SM BR OVC001=

USA.gov is the U.S. government's official web portal to all federal, state and local government web resources and services.